User: anonymous   Login
Location: Caltech
(34.1382°N, 118.1253°W)
Time: 07:39:01
(UTC-07:00)
Language:

ASTRO E2 - Orbit

View from above orbital plane
View from above orbital plane
View from above satellite
View from above satellite

Ground track
Ground track

The orbit data is extracted from the following two-line orbital elements,

1 28773U 05025A   15240.17730586  .00002378  00000-0  12584-3 0  9991
2 28773 031.3825 243.2008 0005178 223.7277 136.2959 15.13255770557346
Epoch (UTC): 28 August 2015 04:15:19
Eccentricity: 0.0005178
inclination: 31.3825°
perigee height: 523 km
apogee height: 530 km
right ascension of ascending node: 243.2008°
argument of perigee: 223.7277°
revolutions per day: 15.13255770
mean anomaly at epoch: 136.2959°
orbit number at epoch: 55734

The dashed part of the orbit path shows where the satellite is in the earth's shadow,  

DLR